Location: Peebles
(55.6412°N, 3.1714°W)
Time: 20:53:25
(UTC+01:00)

deb Kosmos-2123 - Pass Details

Date: 11 July 2022
Orbit: 942 x 985 km, 82.9° (Epoch: 17 August)

Event Time Altitude Azimuth Distance (km) Brightness Sun altitude
Rises 03:38:40 0° 258° (WSW) 3,685 ? -6.7°
Reaches altitude 10° 03:42:34 10° 282° (WNW) 2,734 ? -6.4°
Maximum altitude 03:45:53 15° 314° (NW) 2,411 ? -6.2°
Drops below altitude 10° 03:49:11 10° 346° (NNW) 2,727 ? -5.9°
Sets 03:53:05 0° 10° (N) 3,668 ? -5.6°
